Date String (YYYY-MM-DD hh:mm:ss) UTC,Instrument flags,Ambient pressure (hPa),Sample flow (lpm),Bypass flow (lpm),Sample temperature (°C),Ambient temperature (°C),ASC tube jacket temperature (°C),LED temperature (°C),Box temperature (°C),Sample RH (%),Span deviation,Mass concentration (μg/m³),Mass concentration (μg/m³),Mass concentration (μg/m³)
DateTimeUTC,F1_M11,P_M11,Q1_M11,Q2_M11,T1_M11,T2_M11,T3_M11,T4_M11,T5_M11,U1_M11,ZSPAN_M11,X2_M11,X0_M11,X1_M11
2023-05-13 15:00:00,,0836.1,4.99,0.00,25.5,24.2,00.0,33.7,27.2,25.6,0000.0,0002.14,0004.33,0001.68
2023-05-13 15:01:00,,0836.1,4.99,0.00,25.5,24.2,00.0,33.8,27.2,25.7,0000.0,0002.11,0004.56,0001.67
2023-05-13 15:02:00,,0836.1,5.01,0.00,25.5,24.2,00.0,33.8,27.3,26.0,0000.0,0002.15,0004.84,0001.66
2023-05-13 15:03:00,,0836.1,5.01,0.00,25.6,24.2,00.0,33.8,27.3,26.2,0000.0,0002.11,0004.79,0001.64
2023-05-13 15:04:00,,0836.1,5.01,0.00,25.6,24.2,00.0,33.8,27.3,24.9,0000.0,0002.02,0003.76,0001.60
2023-05-13 15:05:00,,0836.1,5.00,0.00,25.6,24.3,00.0,33.8,27.3,24.7,0000.0,0001.96,0003.63,0001.58
2023-05-13 15:06:00,,0836.1,5.00,0.00,25.6,24.3,00.0,33.8,27.3,24.0,0000.0,0001.86,0003.44,0001.54
2023-05-13 15:07:00,,0836.1,4.99,0.00,25.6,24.3,00.0,33.8,27.3,24.3,0000.0,0001.84,0003.40,0001.51
2023-05-13 15:08:00,,0836.1,4.99,0.00,25.6,24.3,00.0,33.9,27.3,24.1,0000.0,0001.81,0003.33,0001.49
2023-05-13 15:09:00,,0836.1,5.00,0.00,25.6,24.3,00.0,33.9,27.3,24.5,0000.0,0001.78,0003.22,0001.48
2023-05-13 15:10:00,,0836.1,5.00,0.00,25.7,24.3,00.0,33.9,27.4,24.7,0000.0,0001.75,0003.13,0001.46
2023-05-13 15:11:00,,0836.1,5.01,0.00,25.7,24.4,00.0,33.9,27.4,24.9,0000.0,0001.75,0003.07,0001.44
2023-05-13 15:12:00,,0836.1,5.00,0.00,25.7,24.4,00.0,33.9,27.4,24.3,0000.0,0001.76,0002.89,0001.42
2023-05-13 15:13:00,,0836.1,5.00,0.00,25.7,24.4,00.0,33.9,27.4,24.7,0000.0,0001.73,0002.68,0001.40
2023-05-13 15:14:00,,0836.1,5.00,0.00,25.7,24.4,00.0,33.9,27.4,24.8,0000.0,0001.71,0002.62,0001.38
2023-05-13 15:15:00,,0836.1,4.99,0.00,25.7,24.4,00.0,33.9,27.4,24.9,0000.0,0001.75,0002.66,0001.42
2023-05-13 15:16:00,,0836.1,4.99,0.00,25.7,24.4,00.0,34.0,27.4,25.7,0000.0,0001.82,0002.80,0001.46
2023-05-13 15:17:00,,0836.1,5.00,0.00,25.8,24.4,00.0,34.0,27.5,25.6,0000.0,0001.89,0003.18,0001.49
2023-05-13 15:18:00,,0836.1,5.00,0.00,25.8,24.4,00.0,34.0,27.5,26.5,0000.0,0001.97,0003.39,0001.52
2023-05-13 15:19:00,,0836.1,5.00,0.00,25.8,24.5,00.0,34.0,27.5,25.8,0000.0,0001.99,0003.35,0001.57
2023-05-13 15:20:00,,0836.2,5.00,0.00,25.8,24.5,00.0,34.0,27.5,25.6,0000.0,0002.04,0003.45,0001.60
2023-05-13 15:21:00,,0836.2,5.01,0.00,25.8,24.5,00.0,34.0,27.5,25.7,0000.0,0002.11,0004.35,0001.64
2023-05-13 15:22:00,,0836.2,5.01,0.00,25.8,24.5,00.0,34.0,27.5,25.8,0000.0,0002.15,0004.45,0001.68
2023-05-13 15:23:00,,0836.2,5.00,0.00,25.8,24.5,00.0,34.0,27.5,26.1,0000.0,0002.19,0004.54,0001.71
2023-05-13 15:24:00,,0836.2,4.99,0.00,25.8,24.5,00.0,34.1,27.5,26.3,0000.0,0002.20,0004.52,0001.73
2023-05-13 15:25:00,,0836.2,5.00,0.00,25.8,24.5,00.0,34.1,27.5,25.4,0000.0,0002.18,0004.40,0001.72
2023-05-13 15:26:00,,0836.2,4.99,0.00,25.8,24.5,00.0,34.1,27.5,25.0,0000.0,0002.16,0004.27,0001.74
2023-05-13 15:27:00,,0836.2,5.00,0.00,25.9,24.5,00.0,34.1,27.5,24.9,0000.0,0002.18,0004.27,0001.75
2023-05-13 15:28:00,,0836.2,5.00,0.00,25.9,24.5,00.0,34.1,27.5,24.6,0000.0,0002.17,0003.97,0001.76
2023-05-13 15:29:00,,0836.2,5.00,0.00,25.9,24.5,00.0,34.1,27.5,24.7,0000.0,0002.15,0003.91,0001.79
2023-05-13 15:30:00,,0836.2,5.01,0.00,25.9,24.5,00.0,34.1,27.5,24.8,0000.0,0002.15,0004.60,0001.79
2023-05-13 15:31:00,,0836.2,5.00,0.00,25.9,24.5,00.0,34.1,27.6,24.4,0000.0,0002.19,0004.67,0001.79
2023-05-13 15:32:00,,0836.2,4.99,0.00,25.9,24.6,00.0,34.1,27.6,24.5,0000.0,0002.13,0003.96,0001.78
2023-05-13 15:33:00,,0836.2,4.99,0.00,25.9,24.6,00.0,34.2,27.6,24.2,0000.0,0002.09,0003.80,0001.76
2023-05-13 15:34:00,,0836.2,4.99,0.00,25.9,24.6,00.0,34.2,27.6,24.9,0000.0,0002.04,0003.64,0001.75
2023-05-13 15:35:00,,0836.2,5.00,0.00,25.9,24.6,00.0,34.2,27.6,24.3,0000.0,0002.03,0003.60,0001.75
2023-05-13 15:36:00,,0836.2,5.00,0.00,25.9,24.6,00.0,34.2,27.6,24.2,0000.0,0002.07,0003.68,0001.78
2023-05-13 15:37:00,,0836.2,5.01,0.00,26.0,24.6,00.0,34.2,27.6,24.8,0000.0,0002.08,0003.72,0001.77
2023-05-13 15:38:00,,0836.2,5.01,0.00,26.0,24.6,00.0,34.2,27.6,24.5,0000.0,0002.04,0003.62,0001.76
2023-05-13 15:39:00,,0836.2,4.99,0.00,26.0,24.6,00.0,34.2,27.7,24.0,0000.0,0002.02,0003.57,0001.76
2023-05-13 15:40:00,,0836.2,4.99,0.00,26.0,24.7,00.0,34.2,27.7,24.7,0000.0,0002.01,0003.54,0001.76
2023-05-13 15:41:00,,0836.2,5.00,0.00,26.0,24.7,00.0,34.2,27.7,24.6,0000.0,0002.01,0002.77,0001.76
2023-05-13 15:42:00,,0836.2,5.00,0.00,26.0,24.7,00.0,34.2,27.7,24.8,0000.0,0001.98,0002.69,0001.77
2023-05-13 15:43:00,,0836.2,5.01,0.00,26.0,24.7,00.0,34.3,27.7,24.5,0000.0,0001.98,0002.66,0001.77
2023-05-13 15:44:00,,0836.2,5.00,0.00,26.0,24.7,00.0,34.3,27.7,23.7,0000.0,0002.00,0002.53,0001.80
2023-05-13 15:45:00,,0836.2,5.00,0.00,26.0,24.7,00.0,34.3,27.7,24.1,0000.0,0002.04,0002.60,0001.83
2023-05-13 15:46:00,,0836.2,5.00,0.00,26.0,24.7,00.0,34.3,27.7,24.1,0000.0,0002.07,0002.90,0001.83
2023-05-13 15:47:00,,0836.2,4.99,0.00,26.0,24.7,00.0,34.3,27.7,24.4,0000.0,0002.05,0003.03,0001.82
2023-05-13 15:48:00,,0836.2,5.00,0.00,26.0,24.7,00.0,34.3,27.7,23.9,0000.0,0002.03,0002.94,0001.82
2023-05-13 15:49:00,,0836.2,5.00,0.00,26.0,24.7,00.0,34.3,27.7,23.4,0000.0,0002.09,0003.03,0001.84
2023-05-13 15:50:00,,0836.2,5.00,0.00,26.1,24.7,00.0,34.3,27.7,23.4,0000.0,0002.14,0003.19,0001.86
2023-05-13 15:51:00,,0836.2,5.01,0.00,26.1,24.7,00.0,34.3,27.7,23.3,0000.0,0002.18,0003.27,0001.88
2023-05-13 15:52:00,,0836.2,5.01,0.00,26.1,24.7,00.0,34.3,27.7,23.6,0000.0,0002.20,0003.28,0001.89
2023-05-13 15:53:00,,0836.2,5.00,0.00,26.1,24.7,00.0,34.3,27.7,24.1,0000.0,0002.20,0003.27,0001.88
2023-05-13 15:54:00,,0836.2,4.99,0.00,26.1,24.7,00.0,34.3,27.7,24.9,0000.0,0002.19,0003.30,0001.86
2023-05-13 15:55:00,,0836.1,5.00,0.00,26.1,24.7,00.0,34.4,27.7,23.7,0000.0,0002.15,0003.26,0001.83
2023-05-13 15:56:00,,0836.2,5.02,0.00,26.1,24.7,00.0,34.4,27.7,23.0,0000.0,0002.15,0003.26,0001.81
2023-05-13 15:57:00,,0836.1,5.00,0.00,26.1,24.7,00.0,34.4,27.7,23.0,0000.0,0002.16,0003.21,0001.82
2023-05-13 15:58:00,,0836.1,4.98,0.00,26.1,24.7,00.0,34.4,27.7,23.9,0000.0,0002.17,0002.98,0001.82
2023-05-13 15:59:00,,0836.1,5.00,0.00,26.1,24.7,00.0,34.4,27.8,24.9,0000.0,0002.16,0003.01,0001.80
